Wind_Speed
10 10 5 3 4 6 8 10 10 9 10 9 10 10 9 9 11 10 9 10 9 8 5 3 4 3 6 8 7 5 6 8 8 10 13 12 12 10 7 7 5 6 5
12 12 8 7 6 8 9 11 11 9 10 11 11 9 9 9 11 11 12 12 10 10 12 9 9 7 3 3 4 5 6 7 8 9 13 15 12 8 6 3 3 3 2
20 14 10 7 7 9 10 11 10 10 10 11 11 11 11 12 13 13 14 13 12 11 11 10 10 7 5 3 1 2 3 5 8 8 9 10 7 4 3 2 2 0 2
12 11 9 7 7 8 9 10 9 9 9 9 9 10 10 12 13 14 15 15 15 15 13 12 10 8 7 5 4 3 2 1 1 1 4 7 6 5 2 0 2 2 2
12 10 9 6 5 6 6 8 8 8 7 7 8 8 9 10 12 13 13 14 15 15 15 15 14 14 13 11 9 8 9 8 6 5 3 3 1 1 0 2 2 2 1
13 12 10 9 5 3 3 5 6 7 6 5 6 6 7 8 9 10 11 12 13 13 14 15 14 13 13 12 11 9 8 8 6 5 4 3 3 2 3 4 2 1 4
10 11 10 9 6 4 1 2 2 5 4 2 3 5 5 6 8 8 9 9 10 11 12 13 12 12 11 11 10 9 8 6 4 6 3 2 3 4 5 4 2 3 6
10 8 9 9 6 5 9 8 1 5 1 2 2 2 4 4 6 7 7 8 8 9 10 10 11 11 12 11 11 9 9 8 10 9 7 5 4 3 3 2 3 4 3
11 9 9 9 7 6 1 8 6 6 6 6 6 4 4 4 4 5 6 7 8 8 8 8 8 8 9 10 9 9 9 11 12 11 11 10 9 7 3 3 5 3 4
17 15 17 13 9 10 6 12 12 11 9 8 7 6 4 4 3 2 4 5 5 7 8 7 6 6 6 6 7 9 9 8 8 8 7 9 10 10 8 5 3 5 7
21 19 18 17 16 17 14 12 9 11 9 10 8 6 5 5 5 5 4 3 2 4 5 7 6 6 7 7 7 7 6 4 4 4 5 8 9 9 8 8 7 5 3
17 13 11 10 15 22 24 23 11 11 10 12 10 7 5 5 6 7 7 4 2 0 2 4 7 8 8 9 7 6 5 4 3 3 3 5 6 5 6 8 7 5 4
15 16 12 11 12 14 18 22 22 20 15 17 13 8 7 5 5 6 6 6 5 3 1 3 7 9 10 9 10 9 9 7 6 4 4 5 6 6 6 8 9 7 6
14 13 13 14 13 11 13 12 11 25 21 18 14 8 8 6 5 6 6 7 6 4 4 7 8 8 7 8 9 8 7 7 6 5 6 7 7 6 6 7 7 7 6
12 11 10 8 5 5 10 12 14 21 14 14 12 9 7 6 7 7 6 7 6 6 9 9 7 5 3 4 4 4 4 5 5 7 7 7 6 6 7 7 7 6 6
10 8 6 8 8 7 8 12 17 16 14 13 11 8 6 6 6 7 7 8 7 10 9 6 5 5 5 5 4 4 4 6 7 8 7 6 6 8 7 7 7 6 6
9 10 10 10 10 9 12 14 14 16 13 11 8 6 6 6 7 6 7 7 9 11 7 8 7 5 4 3 4 4 3 5 9 8 9 7 6 7 9 6 7 7 7
9 11 12 12 12 12 11 11 10 10 11 10 7 6 6 6 6 7 7 9 9 10 8 8 6 5 3 1 1 2 3 5 6 8 8 9 7 8 8 6 7 8 8
11 13 14 14 13 13 13 12 11 10 10 8 7 7 6 7 7 8 9 10 8 9 9 8 7 5 3 2 2 3 3 4 6 8 8 8 8 7 7 7 8 10 11
14 15 14 15 15 14 14 14 15 16 15 14 12 9 8 8 8 8 10 13 13 9 9 8 6 5 4 2 1 2 3 4 6 7 8 9 9 9 8 9 10 11 12
14 16 16 16 18 22 23 22 20 18 16 14 12 10 9 9 10 11 13 13 12 10 9 10 8 7 6 6 7 8 8 9 10 12 13 13 13 12 12 13 14 15 16
18 17 19 17 21 22 21 19 16 14 11 9 8 7 7 7 9 12 11 12 11 10 11 11 11 12 13 14 15 16 15 12 19 18 18 17 16 14 14 16 17 18 20
19 18 19 19 20 18 17 14 12 10 8 8 9 10 11 10 11 12 14 14 13 12 12 13 13 15 16 18 19 16 16 17 19 20 21 20 19 16 16 18 20 21 21
19 19 19 19 19 17 15 12 10 9 9 9 8 10 12 15 18 17 16 13 12 13 15 14 14 15 15 13 13 16 17 18 19 19 20 21 24 24 22 18 18 18 19
18 19 21 20 19 17 15 13 12 11 13 10 10 11 13 14 15 19 21 18 14 13 12 11 12 13 14 15 16 17 18 18 20 23 25 25 22 20 18 15 13 13 13
18 19 21 21 19 17 17 16 15 15 14 11 11 13 14 14 11 11 16 19 17 14 11 12 14 14 16 17 19 21 23 24 24 20 17 16 15 15 14 13 13 10 10
Wind_Direction
208 158 154 166 121 78 88 85 71 56 53 63 62 61 61 66 66 61 62 64 61 60 70 50 8 231 202 204 211 213 217 215 233 220 218 218 239 239 258 278 303 318 336
192 147 182 161 121 104 99 85 71 63 62 68 72 69 69 69 71 69 64 62 63 66 66 69 75 77 122 160 200 235 251 253 247 223 215 208 218 218 212 222 309 333 356
136 157 152 154 114 101 94 86 76 68 68 70 76 78 77 72 66 64 64 64 66 68 74 76 73 71 87 101 183 233 249 268 252 251 220 201 203 183 189 270 251 243 350
161 150 161 153 121 103 98 91 83 77 77 73 75 77 77 71 70 68 65 66 65 66 68 71 75 73 69 61 54 61 59 357 67 129 188 199 197 180 188 94 337 332 6
153 163 173 159 140 113 92 91 86 78 78 75 70 70 69 70 72 68 65 65 66 67 66 66 64 63 62 62 64 59 69 70 75 94 143 156 165 127 99 356 353 344 343
161 175 178 172 171 138 113 104 89 72 64 72 78 72 63 65 68 69 67 66 71 75 74 69 68 69 67 60 56 55 60 90 83 92 79 47 36 359 345 330 322 260 324
185 188 195 182 144 144 158 83 80 89 63 70 92 93 81 69 67 66 67 68 72 74 71 69 65 62 62 59 53 50 56 60 73 106 101 58 16 347 333 327 265 312 323
200 212 205 187 178 225 237 220 292 348 283 233 190 136 111 93 75 69 72 73 75 71 66 62 58 54 52 55 54 54 57 63 68 75 73 77 62 34 9 345 314 337 352
197 173 221 217 227 247 67 242 215 293 260 241 232 206 167 140 101 93 87 87 85 79 69 59 51 45 46 50 55 62 67 75 74 71 70 62 49 37 20 360 322 309 300
203 198 200 222 222 221 192 217 250 249 245 236 234 226 211 193 180 164 124 114 97 80 62 55 52 49 50 51 71 81 79 75 71 57 44 31 23 15 12 2 332 287 297
224 212 205 205 206 202 215 244 272 273 247 224 224 229 223 225 220 224 202 175 137 90 69 53 53 65 71 71 78 88 88 76 55 41 31 21 17 19 22 22 23 23 315
209 194 205 217 240 237 234 233 240 267 237 219 207 213 222 231 235 225 237 231 256 262 37 61 85 75 67 65 67 77 81 72 52 51 41 10 9 9 10 11 1 358 359
226 222 239 264 261 259 245 238 230 230 221 210 200 204 216 221 243 230 220 230 241 234 100 107 96 86 78 69 67 72 80 81 74 51 19 359 344 325 329 342 356 348 338
245 247 263 280 274 258 228 228 233 212 207 203 199 202 206 220 223 217 221 221 206 188 160 129 110 95 83 69 65 62 65 61 53 28 6 357 354 349 340 327 329 330 332
242 248 252 254 207 207 196 190 199 197 204 199 197 203 212 222 213 216 207 187 183 171 146 130 115 100 88 66 53 46 46 38 24 3 357 354 356 360 348 348 347 339 332
220 212 174 157 166 175 181 182 181 190 183 206 190 204 209 209 189 185 184 177 173 161 151 149 145 128 109 91 79 62 59 45 25 16 2 351 350 351 344 342 343 340 329
188 167 156 157 162 166 178 183 192 178 180 179 183 186 187 195 184 180 181 171 165 165 171 168 161 149 131 95 70 57 50 27 20 14 10 360 347 347 340 327 338 338 330
178 166 163 167 167 170 174 170 165 169 175 177 177 185 195 204 201 195 186 180 184 184 176 177 185 186 198 210 343 350 343 354 355 0 356 356 344 331 338 327 324 321 322
174 172 167 164 168 171 171 167 169 171 168 168 165 165 168 173 176 176 178 179 180 178 180 184 194 208 222 241 271 299 318 323 335 341 340 338 337 330 316 316 311 313 314
176 177 173 169 169 169 164 158 151 142 135 131 130 132 137 149 161 167 163 162 170 183 185 185 186 190 203 216 260 294 306 312 312 316 314 317 321 318 310 302 301 302 304
173 163 159 155 149 145 143 141 138 135 134 135 133 136 139 141 158 163 169 174 177 189 199 196 210 227 246 271 281 283 285 287 283 286 294 297 296 294 293 294 293 293 294
169 164 159 157 155 152 152 151 152 154 156 160 170 176 176 174 179 188 192 200 209 215 222 232 246 256 262 267 273 277 278 287 293 290 297 295 293 291 292 294 294 293 292
179 175 173 172 171 171 171 174 179 186 201 213 223 234 232 224 221 218 217 220 227 238 250 257 261 266 268 273 274 275 277 272 288 286 289 289 291 294 294 295 294 292 289
191 193 189 190 191 192 197 203 207 207 217 229 241 253 253 249 235 233 232 231 244 257 269 274 274 273 276 271 278 282 277 279 286 287 289 291 294 294 293 293 291 287 286
211 206 206 202 202 206 214 219 227 231 242 242 246 258 258 260 252 243 231 231 237 260 262 269 274 276 275 277 281 285 286 288 289 292 294 294 294 297 299 300 296 298 295
214 210 208 210 215 228 233 235 236 242 247 241 270 277 264 261 243 247 238 244 247 248 258 268 270 273 277 280 284 289 291 294 297 297 298 300 300 300 302 303 304 309 304
Height
1536 1538 1542 1544 1543 1542 1541 1540 1541 1543 1543 1542 1541 1540 1540 1541 1539 1537 1536 1533 1532 1531 1530 1530 1531 1530 1530 1533 1535 1537 1539 1540 1542 1542 1544 1545 1547 1548 1548 1549 1549 1549 1549
1534 1538 1542 1544 1543 1542 1541 1540 1542 1544 1544 1543 1542 1542 1543 1542 1539 1538 1537 1535 1534 1532 1531 1532 1532 1532 1533 1533 1535 1537 1538 1539 1540 1541 1542 1543 1544 1545 1545 1546 1547 1548 1549
1529 1539 1543 1545 1545 1544 1542 1542 1543 1545 1546 1546 1545 1544 1545 1543 1541 1540 1539 1537 1536 1534 1533 1533 1533 1534 1534 1535 1536 1537 1538 1538 1538 1538 1540 1542 1543 1545 1546 1546 1547 1548 1549
1538 1540 1543 1545 1545 1544 1544 1542 1544 1545 1546 1547 1547 1546 1546 1544 1543 1542 1541 1539 1538 1537 1536 1535 1535 1535 1536 1536 1536 1537 1538 1538 1539 1540 1542 1543 1544 1545 1546 1547 1547 1548 1548
1535 1540 1542 1543 1545 1545 1546 1545 1544 1546 1546 1547 1548 1548 1548 1547 1546 1545 1545 1543 1541 1541 1540 1539 1538 1538 1537 1538 1539 1539 1539 1540 1540 1542 1543 1544 1545 1546 1546 1547 1548 1548 1549
1529 1535 1537 1539 1543 1545 1546 1546 1545 1545 1547 1548 1549 1550 1550 1550 1549 1548 1547 1546 1545 1544 1543 1542 1542 1541 1541 1541 1542 1542 1541 1542 1542 1543 1545 1546 1547 1547 1547 1548 1548 1548 1549
1533 1534 1537 1539 1539 1544 1546 1546 1546 1544 1546 1549 1551 1551 1551 1551 1551 1550 1549 1548 1547 1546 1545 1545 1544 1544 1544 1544 1544 1544 1544 1544 1544 1544 1545 1546 1547 1548 1548 1548 1548 1548 1548
1534 1536 1538 1539 1538 1541 1544 1544 1544 1544 1545 1548 1550 1551 1551 1551 1552 1551 1550 1549 1549 1548 1548 1547 1547 1546 1546 1546 1546 1546 1546 1546 1546 1546 1547 1547 1548 1548 1548 1548 1548 1548 1548
1533 1534 1538 1539 1538 1539 1541 1541 1541 1542 1544 1547 1548 1549 1550 1551 1552 1552 1552 1551 1550 1549 1549 1549 1549 1548 1548 1548 1548 1548 1548 1548 1549 1549 1549 1549 1549 1549 1549 1549 1549 1549 1548
1529 1530 1531 1535 1536 1538 1540 1541 1541 1543 1544 1545 1547 1548 1549 1550 1551 1552 1552 1552 1551 1551 1550 1550 1549 1549 1549 1549 1548 1549 1549 1550 1551 1552 1552 1551 1550 1550 1549 1548 1548 1550 1549
1525 1528 1530 1532 1532 1534 1537 1539 1540 1540 1542 1543 1544 1546 1548 1549 1550 1552 1552 1552 1551 1551 1551 1551 1550 1550 1550 1550 1550 1550 1551 1552 1552 1552 1553 1553 1552 1550 1549 1548 1547 1547 1548
1522 1525 1528 1530 1532 1532 1533 1534 1536 1536 1539 1541 1542 1544 1546 1547 1548 1550 1550 1551 1552 1552 1552 1551 1550 1550 1551 1550 1550 1550 1551 1551 1552 1553 1554 1554 1553 1552 1550 1549 1548 1547 1546
1520 1521 1524 1525 1528 1528 1528 1530 1531 1531 1535 1538 1540 1542 1544 1545 1546 1548 1549 1550 1551 1552 1552 1552 1552 1552 1552 1552 1552 1552 1551 1552 1553 1554 1553 1553 1551 1551 1549 1548 1547 1546 1545
1516 1517 1519 1519 1520 1521 1522 1525 1526 1529 1532 1535 1538 1540 1541 1543 1544 1546 1547 1548 1549 1551 1552 1553 1553 1553 1554 1554 1553 1553 1553 1553 1552 1552 1552 1550 1549 1549 1548 1547 1547 1546 1545
1513 1513 1514 1515 1517 1518 1520 1522 1524 1527 1531 1534 1537 1538 1539 1540 1542 1543 1545 1546 1548 1550 1551 1553 1554 1554 1555 1555 1554 1554 1553 1552 1552 1551 1551 1551 1549 1548 1547 1546 1545 1544 1544
1509 1510 1511 1513 1516 1519 1519 1520 1524 1527 1531 1533 1535 1537 1537 1538 1539 1541 1543 1545 1547 1550 1552 1554 1555 1556 1555 1555 1555 1555 1554 1553 1551 1550 1550 1549 1548 1547 1546 1546 1545 1544 1543
1508 1508 1510 1513 1515 1518 1520 1522 1524 1526 1528 1530 1533 1534 1536 1537 1539 1541 1543 1545 1547 1550 1552 1553 1555 1556 1555 1556 1555 1555 1555 1553 1551 1550 1549 1548 1547 1547 1545 1545 1544 1543 1542
1507 1508 1509 1512 1515 1518 1520 1522 1524 1525 1528 1531 1532 1534 1535 1536 1538 1539 1542 1544 1547 1549 1551 1553 1554 1554 1555 1554 1554 1554 1554 1552 1552 1550 1549 1547 1546 1545 1545 1544 1543 1542 1541
1507 1509 1510 1511 1514 1517 1519 1521 1524 1526 1528 1530 1532 1533 1534 1535 1537 1538 1540 1543 1547 1549 1550 1552 1552 1553 1553 1553 1552 1552 1552 1551 1550 1549 1548 1547 1546 1545 1544 1543 1542 1540 1538
1507 1508 1509 1510 1513 1515 1518 1521 1525 1527 1529 1530 1532 1534 1535 1535 1537 1539 1540 1543 1546 1548 1549 1550 1551 1551 1551 1551 1551 1550 1550 1549 1549 1548 1547 1546 1545 1543 1542 1541 1540 1538 1537
1507 1508 1510 1512 1513 1516 1520 1524 1526 1528 1530 1532 1533 1535 1536 1536 1538 1539 1541 1543 1545 1547 1547 1547 1548 1548 1548 1548 1548 1548 1548 1547 1547 1545 1544 1543 1542 1541 1539 1538 1536 1535 1533
1507 1510 1512 1515 1518 1521 1523 1525 1527 1529 1531 1532 1534 1534 1536 1536 1538 1539 1541 1542 1543 1544 1545 1545 1545 1545 1545 1544 1543 1544 1544 1543 1542 1541 1540 1539 1537 1536 1535 1533 1532 1530 1529
1509 1511 1514 1517 1519 1521 1523 1526 1527 1528 1530 1531 1532 1533 1534 1536 1537 1538 1539 1539 1539 1540 1541 1541 1540 1540 1540 1540 1539 1538 1538 1538 1537 1536 1535 1534 1532 1531 1529 1528 1526 1524 1522
1508 1510 1513 1515 1518 1520 1522 1524 1526 1526 1528 1528 1529 1530 1531 1531 1533 1534 1535 1536 1536 1536 1536 1536 1536 1535 1535 1534 1534 1533 1533 1533 1532 1531 1529 1528 1527 1524 1522 1520 1519 1517 1515
1505 1508 1511 1513 1516 1519 1521 1522 1524 1525 1526 1526 1527 1527 1527 1527 1528 1528 1529 1531 1531 1532 1532 1531 1531 1531 1531 1530 1529 1528 1528 1528 1526 1525 1523 1521 1519 1516 1514 1513 1512 1510 1509
1502 1505 1508 1511 1514 1516 1519 1520 1522 1522 1522 1523 1523 1523 1523 1522 1522 1523 1524 1526 1527 1527 1527 1527 1527 1527 1526 1525 1524 1523 1522 1521 1519 1517 1516 1514 1513 1511 1509 1507 1506 1504 1503